Location: Newark
(32.2136°N, 35.2820°E)
Time: 20:53:11
(UTC+00:00)

N. Korean satellite - Visible Passes

Search period start: 14 October 2019 00:00
Search period end: 24 October 2019 00:00
Orbit: 455 x 508 km, 97.2° (Epoch: 14 October)

Date Brightness Start Highest point End Pass type
(mag) Time Alt. Az. Time Alt. Az. Time Alt. Az.
14 Oct 9.9 02:43:45 10° NE 02:46:17 18° E 02:48:49 10° SE visible
15 Oct 10.6 15:57:51 10° WSW 15:58:33 10° W 15:59:16 10° W visible
16 Oct 9.4 15:30:20 10° SSW 15:33:08 24° W 15:35:58 10° NW visible
17 Oct 8.8 03:00:36 10° NNE 03:03:52 31° E 03:07:09 10° SSE visible
18 Oct 10.1 02:36:25 10° ENE 02:38:29 15° E 02:40:34 10° SE visible
19 Oct 10.1 15:48:55 10° SW 15:50:42 14° W 15:52:29 10° WNW visible
20 Oct 7.4 03:17:47 10° NNE 03:21:23 59° E 03:25:00 10° S visible
20 Oct 8.8 15:22:15 10° SSW 15:25:17 30° W 15:28:22 10° NW visible
21 Oct 9.2 02:52:59 10° NE 02:56:04 25° E 02:59:08 10° SSE visible
22 Oct 10.4 02:29:19 10° ENE 02:30:38 12° E 02:31:59 10° ESE visible
23 Oct 9.9 15:40:28 10° SW 15:42:48 17° W 15:45:10 10° NW visible
